Main page
METAR-TAF:

METAR-TAF

Airports :

Southwest Washington Regional Airport

Kelso, Washington, United States

latitude: 46-07N, longitude: 122-54W, elevation: 16 ft

Current weather observation

The report was made 47 minutes ago, at 22:56 UTC
Wind 9 mph from the West
Temperature 70°F
Humidity 53%
Pressure 30.04 in. Hg
Visibility: 10 miles
Clear sky

METAR: KKLS 132256Z AUTO 28008KT 10SM CLR 21/11 A3004 RMK AO2 SLP177 T02060106

Time: 16:43 (23:43 UTC)


TAF: missing

Weather observations and forecasts of more than 4000 airports (METAR and TAF reports).

The available stations are represented by yellow and red dots on the map.

Hover mouse over dot to see the name of the station.

Then click to see weather observations and forecasts.

To change the map : click on the green buttons with a black cross to zoom in, on the green button with a dash to zoom out, or on the green arrows for adjacent maps.


METAR-TAF: